[[{"header":{"parameterUnit":"m.s-1","parameterCategory":2,"la1":30.2991,"la2":30.254,"lo1":-89.0895,"lo2":-89.0444,"dy":0.0017,"dx":0.0017,"nx":28,"ny":28,"refTime":"2024-07-28T21:00:00:Z","depth":"0","parameterNumber":2,"parameterNumberName":"U-component_of_CURRENTS"},"data":[0,0,0,0,0,0,0,0,0,0,0,0,0,0,0,0,0,0,0,0,0,0,0,0,0,0,0,0,0,0,0,0,0,0,0,0,0,0,0,0,0,0,0,0,0,0,0,0,0,0,0,0,0,0,0,0,0,0,0.4689,0.469,0,0.474,0.474,0.4741,0.4755,0.4755,0.4755,0.4755,0.4713,0.4712,0.4711,0,0,0,0,0,0,0,0,0,0,0,0,0,0.4537,0.454,0.4689,0.469,0.4691,0.474,0.474,0.4741,0.4755,0.4755,0.4755,0.4755,0.4713,0.4712,0.4711,0,0,0,0,0,0,0,0,0,0,0,0,0,0.4594,0.4541,0.4689,0.4706,0.4708,0.474,0.474,0.4741,0.4755,0.4755,0.4755,0.4755,0.4714,0.4712,0.4711,0.47,0,0,0.4705,0.4705,0,0,0,0,0,0,0,0,0.4591,0.4599,0.4703,0.4705,0.4708,0.4744,0.4672,0.4724,0.4755,0.4734,0.4755,0.4755,0.4717,0.4715,0.4721,0.4698,0.4696,0.4705,0.4704,0.4704,0.4703,0,0,0,0,0,0,0,0.4587,0.4597,0.4706,0.4704,0.4707,0.4689,0.4697,0.4682,0.472,0.4735,0.4737,0.4748,0.4717,0.4723,0.472,0.4696,0.4705,0.4704,0.4703,0.4702,0.4691,0.4692,0,0,0,0,0,0,0.4592,0.4594,0.4704,0.4708,0.4652,0.4692,0.4701,0.473,0.4722,0.4723,0.4748,0.4749,0.4726,0.4722,0.4718,0.4734,0.4704,0.4702,0.4701,0.469,0.4691,0.4692,0,0,0,0,0,0,0.4589,0.4602,0.4702,0.4653,0.4665,0.4696,0.4727,0.4731,0.4743,0.4734,0.4732,0.4757,0.4726,0.4721,0.4717,0.4731,0.4701,0.47,0.4689,0.4691,0.4691,0.4745,0,0,0,0,0,0,0.4584,0.4601,0.4608,0.4654,0.4668,0.4719,0.4727,0.4732,0.4751,0.4752,0.4741,0.4737,0.4725,0.472,0.4715,0.4728,0.4698,0.4689,0.469,0.4691,0.4743,0.4748,0.4753,0,0,0,0,0,0.4579,0.4586,0.4609,0.4621,0.4684,0.4719,0.4724,0.4742,0.4751,0.4753,0.4756,0.4737,0.4725,0.4719,0.4714,0.4726,0.4688,0.469,0.4691,0.474,0.4747,0.4752,0,0,0,0,0,0,0.4504,0.4591,0.4616,0.4644,0.4681,0.4723,0.4719,0.4746,0.4752,0.4747,0.4744,0.474,0.4743,0.4726,0.472,0.4727,0.4704,0.4705,0.4743,0.4749,0.4754,0.4715,0.4697,0,0,0,0,0,0.45,0.4536,0.4606,0.4621,0.4643,0.4685,0.4698,0.472,0.4739,0.4743,0.4743,0.474,0.4745,0.474,0.4733,0.4732,0.4736,0.4737,0.4743,0.4747,0.4712,0.4753,0.4759,0.4697,0.4697,0.4697,0,0,0.4462,0.4523,0.4533,0.4609,0.4635,0.4663,0.4692,0.4714,0.473,0.4734,0.474,0.4754,0.4749,0.4757,0.4756,0.4744,0.4776,0.4749,0.4753,0.4714,0.4755,0.4761,0.4767,0.4698,0.4698,0.4698,0,0,0.4422,0.4474,0.4496,0.4538,0.4599,0.4632,0.4645,0.4697,0.4711,0.473,0.4745,0.4764,0.4762,0.4771,0.4774,0.4797,0.4803,0.4806,0.4796,0.4839,0.4844,0.4848,0.4904,0.4913,0.4807,0.4807,0.4807,0,0.4368,0.4431,0.4497,0.4537,0.4564,0.4623,0.4642,0.4667,0.4709,0.4723,0.4728,0.4762,0.4763,0.4786,0.4798,0.4806,0.4837,0.4779,0.4846,0.485,0.4854,0.4909,0.4918,0.481,0.481,0.4809,0.4809,0,0.4364,0.4407,0.4418,0.45,0.4532,0.4555,0.4617,0.4642,0.4673,0.4705,0.4736,0.4755,0.4773,0.4796,0.4799,0.4834,0.4854,0.4854,0.4832,0.4863,0.492,0.4929,0.4814,0.4813,0.4812,0.4812,0,0,0.425,0.4389,0.4388,0.4428,0.4521,0.4542,0.4578,0.463,0.4652,0.4692,0.472,0.4748,0.4771,0.4773,0.4803,0.4835,0.4912,0.4852,0.4853,0.4908,0.5026,0.5035,0.5045,0.4938,0.4938,0.4939,0.5072,0,0.4219,0.429,0.4367,0.4401,0.444,0.4515,0.4542,0.4593,0.4641,0.468,0.472,0.4749,0.4762,0.4784,0.482,0.4886,0.4929,0.4875,0.4983,0.4985,0.499,0.5052,0.4788,0.4883,0.508,0.5081,0.5082,0,0.4186,0.4251,0.4294,0.4385,0.4403,0.4425,0.4491,0.4527,0.4603,0.4645,0.4693,0.4728,0.4784,0.4788,0.4902,0.4875,0.4937,0.4988,0.4995,0.4973,0.5007,0.4874,0.489,0.4753,0.5095,0.5094,0.5093,0,0.409,0.4186,0.4223,0.4255,0.4366,0.4382,0.4427,0.4506,0.4541,0.4625,0.4663,0.4732,0.4774,0.4854,0.4959,0.4938,0.5094,0.5084,0.515,0.5153,0.4926,0.4908,0.4808,0.5149,0.5148,0.5148,0.5148,0,0.4038,0.4053,0.418,0.4198,0.4224,0.4317,0.4343,0.4408,0.4494,0.4539,0.4631,0.468,0.479,0.4893,0.4976,0.5104,0.5117,0.5147,0.5183,0.4945,0.4927,0.4794,0.4738,0.5153,0.5152,0.5151,0.515,0,0.3919,0.4008,0.4053,0.416,0.4185,0.4199,0.4292,0.4314,0.4419,0.4487,0.4513,0.4652,0.4799,0.4929,0.5081,0.5129,0.5105,0.5288,0.5013,0.5014,0.4924,0.4881,0.4707,0.4584,0.5364,0.5365,0.5366,0,0.3867,0.3887,0.3997,0.4021,0.4064,0.4111,0.4137,0.4255,0.4299,0.447,0.4493,0.4655,0.4757,0.5008,0.5132,0.5298,0.5128,0.5127,0.5021,0.4882,0.4861,0.4715,0.4613,0.4761,0.4756,0.4753,0.475,0,0.3772,0.3815,0.3861,0.3913,0.3945,0.3978,0.4038,0.406,0.4208,0.428,0.4405,0.4501,0.4773,0.4811,0.5037,0.5107,0.485,0.5065,0.4954,0.4404,0.4195,0.4106,0.4744,0.4719,0.4722,0.4725,0.4726,0.4727,0.3697,0.3697,0.3769,0.3787,0.3829,0.383,0.3793,0.3889,0.3936,0.3992,0.4197,0.4248,0.4411,0.4703,0.4767,0.4695,0.4748,0.4525,0.4501,0.4382,0.4178,0.4782,0.4786,0.4789,0.4792,0.4795,0.4797,0,0.3599,0.3614,0.3638,0.3662,0.3627,0.3692,0.3706,0.3632,0.3633,0.376,0.3831,0.3886,0.3931,0.4082,0.4198,0.4114,0.3944,0.3989,0.3647,0.3592,0.4139,0.4025,0.382,0.382,0.382,0.382,0.382,0.382,0.3576,0.3538,0.3532,0.345,0.3444,0.332,0.3276,0.3213,0.3247,0.3207,0.3222,0.3329,0.3603,0.3732,0.3675,0.3586,0.3334,0.3193,0.3273,0.3582,0.3626,0.3669,0.3547,0.3244,0.3243,0.2516,0.251,0.2506]},{"header":{"parameterUnit":"m.s-1","parameterCategory":2,"la1":30.2991,"la2":30.254,"lo1":-89.0895,"lo2":-89.0444,"dy":0.0017,"dx":0.0017,"nx":28,"ny":28,"refTime":"2024-07-28T21:00:00:Z","depth":"0","parameterNumber":3,"parameterNumberName":"V-component_of_CURRENTS"},"data":[0,0,0,0,0,0,0,0,0,0,0,0,0,0,0,0,0,0,0,0,0,0,0,0,0,0,0,0,0,0,0,0,0,0,0,0,0,0,0,0,0,0,0,0,0,0,0,0,0,0,0,0,0,0,0,0,0,0,-0.093,-0.093,0,-0.0976,-0.0977,-0.0977,-0.1015,-0.1016,-0.1016,-0.1016,-0.1096,-0.1098,-0.11,0,0,0,0,0,0,0,0,0,0,0,0,0,-0.0887,-0.0888,-0.093,-0.093,-0.0931,-0.0976,-0.0977,-0.0977,-0.1015,-0.1016,-0.1016,-0.1016,-0.1095,-0.1098,-0.11,0,0,0,0,0,0,0,0,0,0,0,0,0,-0.0917,-0.0888,-0.0929,-0.0955,-0.0957,-0.0976,-0.0977,-0.0978,-0.1015,-0.1016,-0.1016,-0.1017,-0.1095,-0.1097,-0.11,-0.1106,0,0,-0.1108,-0.1109,0,0,0,0,0,0,0,0,-0.0915,-0.0919,-0.095,-0.0953,-0.0956,-0.099,-0.0991,-0.1022,-0.1015,-0.0994,-0.1016,-0.1017,-0.1063,-0.1068,-0.1076,-0.111,-0.1113,-0.1108,-0.111,-0.1111,-0.1112,0,0,0,0,0,0,0,-0.0913,-0.0917,-0.0949,-0.0951,-0.0954,-0.0968,-0.0973,-0.0997,-0.1026,-0.0996,-0.0998,-0.1002,-0.1065,-0.1073,-0.1078,-0.1115,-0.1108,-0.1111,-0.1112,-0.1114,-0.1145,-0.1144,0,0,0,0,0,0,-0.0905,-0.0915,-0.0947,-0.095,-0.0936,-0.0968,-0.0974,-0.0979,-0.1025,-0.1032,-0.1002,-0.1004,-0.1068,-0.1075,-0.1081,-0.1075,-0.1111,-0.1114,-0.1115,-0.1146,-0.1145,-0.1144,0,0,0,0,0,0,-0.0904,-0.0908,-0.0945,-0.0933,-0.0939,-0.0968,-0.0974,-0.098,-0.0987,-0.1029,-0.1037,-0.1004,-0.1069,-0.1078,-0.1092,-0.1079,-0.1115,-0.1117,-0.1147,-0.1145,-0.1144,-0.1073,0,0,0,0,0,0,-0.0903,-0.0907,-0.0903,-0.0933,-0.0939,-0.0947,-0.0974,-0.098,-0.0989,-0.0992,-0.1033,-0.1041,-0.107,-0.1088,-0.1095,-0.1084,-0.112,-0.1148,-0.1146,-0.1145,-0.1077,-0.107,-0.1064,0,0,0,0,0,-0.0901,-0.0889,-0.0903,-0.0907,-0.0935,-0.0946,-0.0951,-0.0974,-0.0988,-0.0984,-0.101,-0.104,-0.1084,-0.1089,-0.1098,-0.1087,-0.1148,-0.1147,-0.1145,-0.1079,-0.1071,-0.1064,0,0,0,0,0,0,-0.0862,-0.0893,-0.0908,-0.0905,-0.0922,-0.0952,-0.0949,-0.0968,-0.0986,-0.0989,-0.1031,-0.104,-0.1048,-0.1076,-0.1081,-0.1091,-0.1121,-0.112,-0.1068,-0.1061,-0.1054,-0.1026,-0.1122,0,0,0,0,0,-0.0853,-0.0853,-0.0886,-0.0879,-0.0889,-0.0919,-0.0926,-0.0942,-0.0964,-0.0972,-0.1001,-0.1028,-0.1047,-0.106,-0.1081,-0.1088,-0.1097,-0.1086,-0.108,-0.1074,-0.1056,-0.1064,-0.1057,-0.1138,-0.1138,-0.1138,0,0,-0.0831,-0.0849,-0.0847,-0.087,-0.0887,-0.0885,-0.0924,-0.0928,-0.0921,-0.0978,-0.0974,-0.1007,-0.1043,-0.1047,-0.1054,-0.107,-0.1053,-0.1072,-0.1067,-0.1052,-0.1062,-0.1054,-0.1047,-0.1137,-0.1137,-0.1137,0,0,-0.0782,-0.0809,-0.0793,-0.0809,-0.0831,-0.0852,-0.0852,-0.0881,-0.089,-0.0895,-0.093,-0.0951,-0.0982,-0.1003,-0.1019,-0.099,-0.1017,-0.1001,-0.0949,-0.0957,-0.095,-0.0944,-0.093,-0.0923,-0.1,-0.1,-0.1,0,-0.0749,-0.0743,-0.0787,-0.0779,-0.0781,-0.0834,-0.0813,-0.0831,-0.0857,-0.0856,-0.0882,-0.0917,-0.0958,-0.0957,-0.095,-0.0975,-0.0975,-0.0975,-0.0947,-0.0942,-0.0937,-0.0924,-0.0918,-0.0996,-0.0996,-0.0997,-0.0997,0,-0.0693,-0.0691,-0.0682,-0.0693,-0.0702,-0.0693,-0.0729,-0.0735,-0.0758,-0.0776,-0.078,-0.0832,-0.0854,-0.0872,-0.0905,-0.089,-0.0897,-0.0936,-0.0964,-0.0924,-0.0913,-0.0908,-0.0991,-0.0992,-0.0993,-0.0994,0,0,-0.0582,-0.0633,-0.0624,-0.062,-0.0656,-0.0651,-0.0649,-0.0654,-0.0634,-0.0677,-0.065,-0.0704,-0.074,-0.0758,-0.0806,-0.0816,-0.0791,-0.0855,-0.0857,-0.0834,-0.0783,-0.0739,-0.0729,-0.0825,-0.0824,-0.0823,-0.0784,0,-0.0511,-0.0491,-0.0533,-0.0496,-0.0484,-0.0539,-0.0525,-0.0541,-0.0563,-0.0554,-0.0613,-0.0609,-0.0694,-0.0695,-0.0726,-0.0772,-0.0775,-0.0796,-0.083,-0.083,-0.0791,-0.0721,-0.0664,-0.062,-0.0779,-0.0778,-0.0777,0,-0.0413,-0.0421,-0.0385,-0.0399,-0.0396,-0.0382,-0.0371,-0.0367,-0.0389,-0.0403,-0.0434,-0.0481,-0.051,-0.0582,-0.0644,-0.0652,-0.0705,-0.0744,-0.0745,-0.0721,-0.0775,-0.0689,-0.0605,-0.0811,-0.0769,-0.077,-0.0771,0,-0.0287,-0.0298,-0.0268,-0.0273,-0.0303,-0.0285,-0.0293,-0.0309,-0.028,-0.0297,-0.0267,-0.0345,-0.034,-0.0439,-0.0542,-0.0588,-0.0588,-0.0671,-0.0675,-0.0673,-0.0638,-0.0634,-0.075,-0.0694,-0.0694,-0.0694,-0.0695,0,-0.0173,-0.0135,-0.0208,-0.0183,-0.0127,-0.0184,-0.0115,-0.0135,-0.0129,-0.0056,-0.0174,-0.0115,-0.03,-0.0337,-0.0472,-0.0532,-0.054,-0.0632,-0.065,-0.061,-0.0604,-0.0795,-0.0899,-0.0693,-0.0693,-0.0694,-0.0694,0,-0.001,-0.0064,-0.0025,-0.0062,-0.0061,-0.0014,0.0003,0.0056,0.0039,0.0136,0.0146,0.0084,0.0045,-0.0127,-0.0253,-0.0396,-0.0563,-0.0512,-0.0437,-0.0447,-0.0666,-0.0766,-0.0837,-0.0894,-0.0517,-0.0516,-0.0514,0,0.0085,0.0111,0.0082,0.011,0.0104,0.0146,0.0191,0.0161,0.0225,0.0284,0.036,0.034,0.037,0.019,-0.0049,-0.0244,-0.0455,-0.035,-0.0441,-0.0635,-0.0762,-0.085,-0.09,-0.0367,-0.0364,-0.0362,-0.0361,0,0.0263,0.0235,0.0242,0.0285,0.0328,0.0378,0.0434,0.051,0.0519,0.062,0.0756,0.0786,0.0618,0.0462,0.0162,-0.0012,-0.0459,-0.0315,-0.0545,-0.0654,-0.0728,-0.0804,-0.0436,-0.0344,-0.0345,-0.0347,-0.0347,-0.0348,0.0404,0.0429,0.0417,0.0469,0.0521,0.0613,0.0697,0.0781,0.0928,0.1091,0.1094,0.1208,0.0881,0.0497,0.0225,-0.0279,-0.0306,-0.0461,-0.0562,-0.0632,-0.0696,-0.0267,-0.0187,-0.0188,-0.0188,-0.0189,-0.019,0,0.0562,0.0557,0.0607,0.066,0.0754,0.0732,0.0868,0.097,0.1191,0.1351,0.15,0.1457,0.1061,0.057,-0.0082,-0.0468,-0.0644,-0.0711,-0.0864,-0.0903,-0.0542,-0.055,-0.051,-0.051,-0.051,-0.0509,-0.0509,-0.0509,0.0647,0.0699,0.0691,0.0856,0.0909,0.1047,0.1135,0.1291,0.1431,0.1673,0.1788,0.1842,0.1481,0.0246,-0.0636,-0.0849,-0.1142,-0.1163,-0.1337,-0.1161,-0.1149,-0.1137,-0.1174,-0.1266,-0.1266,-0.1651,-0.1655,-0.1659]}],[{"header":{"parameterUnit":"m.s-1","parameterCategory":2,"la1":30.2991,"la2":30.254,"lo1":-89.0895,"lo2":-89.0444,"dy":0.0017,"dx":0.0017,"nx":28,"ny":28,"refTime":"2024-07-28T21:00:00:Z","depth":"2","parameterNumber":2,"parameterNumberName":"U-component_of_CURRENTS"},"data":[0,0,0,0,0,0,0,0,0,0,0,0,0,0,0,0,0,0,0,0,0,0,0,0,0,0,0,0,0,0,0,0,0,0,0,0,0,0,0,0,0,0,0,0,0,0,0,0,0,0,0,0,0,0,0,0,0,0,0.2986,0.2987,0,0.3057,0.3058,0.3059,0.3054,0.3053,0.3052,0.3051,0.3038,0.3039,0.3039,0,0,0,0,0,0,0,0,0,0,0,0,0,0.2882,0.2883,0.2986,0.2987,0.2988,0.3057,0.3058,0.3059,0.3054,0.3053,0.3052,0.3051,0.3038,0.3038,0.3039,0,0,0,0,0,0,0,0,0,0,0,0,0,0.2936,0.2884,0.2986,0.2995,0.2997,0.3057,0.3058,0.3059,0.3054,0.3053,0.3051,0.305,0.3038,0.3038,0.3039,0.3071,0,0,0.3041,0.3042,0,0,0,0,0,0,0,0,0.2933,0.294,0.2993,0.2995,0.2997,0.3047,0.3017,0.3059,0.3055,0.3031,0.3051,0.305,0.3035,0.3036,0.3051,0.307,0.307,0.3042,0.3042,0.3042,0.3042,0,0,0,0,0,0,0,0.2929,0.2937,0.3013,0.2994,0.2997,0.3008,0.3014,0.3025,0.3037,0.3033,0.3033,0.3044,0.3035,0.3051,0.3051,0.307,0.3041,0.3042,0.3043,0.3043,0.3185,0.3188,0,0,0,0,0,0,0.2924,0.2933,0.3011,0.3015,0.2963,0.3011,0.3017,0.3031,0.3039,0.304,0.3045,0.3043,0.305,0.305,0.305,0.314,0.3042,0.3043,0.3043,0.3181,0.3185,0.3189,0,0,0,0,0,0,0.2921,0.293,0.3008,0.2977,0.2987,0.3014,0.3029,0.3033,0.306,0.3049,0.3048,0.3069,0.3049,0.3049,0.3094,0.3136,0.3043,0.3044,0.3177,0.3183,0.3187,0.3285,0,0,0,0,0,0,0.2918,0.2929,0.2952,0.2976,0.2989,0.3062,0.3031,0.3035,0.3069,0.3068,0.307,0.3066,0.3048,0.3093,0.3094,0.3136,0.3045,0.3173,0.318,0.3186,0.3277,0.3292,0.3305,0,0,0,0,0,0.2914,0.2953,0.2953,0.2963,0.3015,0.3064,0.3073,0.3085,0.3071,0.31,0.3109,0.3067,0.3133,0.3097,0.3097,0.314,0.317,0.3178,0.3185,0.3271,0.3289,0.3305,0,0,0,0,0,0,0.2927,0.2957,0.2957,0.3005,0.3038,0.3064,0.3098,0.31,0.3132,0.3129,0.3109,0.3109,0.3165,0.3149,0.3109,0.3204,0.3145,0.3154,0.3211,0.3228,0.3242,0.3218,0.3045,0,0,0,0,0,0.2939,0.2971,0.3001,0.3041,0.306,0.3081,0.3106,0.3112,0.3137,0.3149,0.3146,0.316,0.3198,0.3208,0.3228,0.3278,0.3277,0.3309,0.3323,0.3335,0.3321,0.3392,0.341,0.3213,0.3213,0.3213,0,0,0.2951,0.2977,0.2993,0.3046,0.307,0.3106,0.3093,0.3138,0.3168,0.3143,0.3185,0.3207,0.3225,0.3286,0.3309,0.3275,0.3397,0.3344,0.3354,0.3333,0.3402,0.3421,0.3437,0.3219,0.3218,0.3217,0,0,0.2985,0.3019,0.3049,0.308,0.3125,0.3145,0.3161,0.3192,0.3212,0.3263,0.3263,0.3314,0.3347,0.3378,0.3397,0.3503,0.3472,0.3514,0.3559,0.363,0.3646,0.366,0.3699,0.3715,0.3517,0.3517,0.3517,0,0.3001,0.3039,0.307,0.3105,0.3134,0.3162,0.3196,0.3233,0.3273,0.3296,0.3285,0.3378,0.3392,0.3481,0.3521,0.3532,0.3555,0.3489,0.3646,0.366,0.3672,0.3709,0.3726,0.3523,0.3522,0.3521,0.3521,0,0.3043,0.308,0.3107,0.3154,0.3195,0.3237,0.3279,0.332,0.3342,0.3367,0.3453,0.3493,0.3538,0.3574,0.3577,0.3685,0.3669,0.3658,0.3595,0.3697,0.373,0.3746,0.3531,0.3529,0.3527,0.3525,0,0,0.3059,0.312,0.3131,0.315,0.3221,0.3253,0.3322,0.3388,0.3425,0.3482,0.3538,0.3633,0.3643,0.3667,0.3695,0.3761,0.3883,0.3748,0.375,0.3772,0.4028,0.3937,0.3944,0.3906,0.3909,0.3912,0.402,0,0.3082,0.314,0.317,0.3229,0.3264,0.331,0.3365,0.3427,0.3482,0.3544,0.3615,0.368,0.3685,0.372,0.3792,0.3865,0.3927,0.3853,0.3937,0.3939,0.3833,0.3961,0.3591,0.3649,0.4035,0.4038,0.404,0,0.3109,0.3147,0.3199,0.3255,0.3274,0.3312,0.3398,0.3449,0.3549,0.359,0.3672,0.3717,0.3836,0.3816,0.3982,0.3938,0.3983,0.403,0.4036,0.3916,0.3876,0.3609,0.3662,0.4065,0.4063,0.4061,0.406,0,0.3099,0.3166,0.3204,0.3226,0.3298,0.3329,0.3371,0.3463,0.3518,0.3623,0.3682,0.3797,0.3876,0.3967,0.4058,0.4037,0.4221,0.42,0.4155,0.4148,0.3828,0.3787,0.4302,0.4301,0.4301,0.4301,0.4301,0,0.3111,0.3143,0.3198,0.322,0.3262,0.3315,0.3376,0.3432,0.3535,0.3597,0.37,0.3771,0.3923,0.4036,0.4093,0.4176,0.4252,0.4178,0.4182,0.3854,0.3817,0.416,0.4142,0.4305,0.4304,0.4303,0.4303,0,0.3092,0.3132,0.317,0.3235,0.3257,0.3282,0.3372,0.3414,0.3521,0.3612,0.3654,0.3805,0.393,0.406,0.4212,0.4221,0.4303,0.43,0.3891,0.3846,0.4171,0.4157,0.4275,0.4273,0.4271,0.427,0.4269,0,0.3087,0.3105,0.3163,0.3182,0.3209,0.3261,0.3293,0.3391,0.3439,0.3608,0.3642,0.3807,0.3859,0.4053,0.4067,0.4145,0.427,0.3888,0.3778,0.4182,0.4175,0.4164,0.4153,0.3398,0.339,0.3383,0.3378,0,0.307,0.3087,0.3112,0.3148,0.3176,0.3195,0.325,0.3279,0.3385,0.3446,0.3507,0.3566,0.3725,0.3622,0.3753,0.3755,0.3847,0.3755,0.4299,0.3467,0.3365,0.3355,0.3371,0.3318,0.3324,0.3328,0.3332,0.3334,0.305,0.305,0.3081,0.3067,0.3112,0.3085,0.3031,0.3086,0.3087,0.3094,0.3254,0.3226,0.3305,0.3282,0.3242,0.325,0.3512,0.3405,0.3421,0.3446,0.333,0.3231,0.3135,0.314,0.3144,0.3148,0.3151,0,0.2984,0.2983,0.3,0.2964,0.2911,0.2983,0.2959,0.2846,0.2737,0.2822,0.2808,0.2606,0.2566,0.2701,0.2589,0.2651,0.2587,0.2596,0.2462,0.2523,0.2578,0.2413,0.1978,0.1975,0.1972,0.1969,0,0,0.2966,0.2915,0.2871,0.2727,0.2715,0.2573,0.2499,0.2381,0.2369,0.2237,0.2209,0.2367,0.2557,0.2187,0.2175,0.2056,0.2268,0.1986,0.2919,0.2815,0.2864,0.3035,0.285,0,0,0,0,0]},{"header":{"parameterUnit":"m.s-1","parameterCategory":2,"la1":30.2991,"la2":30.254,"lo1":-89.0895,"lo2":-89.0444,"dy":0.0017,"dx":0.0017,"nx":28,"ny":28,"refTime":"2024-07-28T21:00:00:Z","depth":"2","parameterNumber":3,"parameterNumberName":"V-component_of_CURRENTS"},"data":[0,0,0,0,0,0,0,0,0,0,0,0,0,0,0,0,0,0,0,0,0,0,0,0,0,0,0,0,0,0,0,0,0,0,0,0,0,0,0,0,0,0,0,0,0,0,0,0,0,0,0,0,0,0,0,0,0,0,0.0765,0.0764,0,0.0644,0.0642,0.0641,0.0507,0.0505,0.0503,0.0502,0.0275,0.027,0.0266,0,0,0,0,0,0,0,0,0,0,0,0,0,0.0835,0.0834,0.0765,0.0764,0.0763,0.0644,0.0642,0.064,0.0507,0.0505,0.0503,0.0501,0.0276,0.0271,0.0265,0,0,0,0,0,0,0,0,0,0,0,0,0,0.0765,0.0834,0.0765,0.0685,0.0676,0.0645,0.0642,0.064,0.0507,0.0505,0.0502,0.05,0.0278,0.0271,0.0265,0.0271,0,0,0.0244,0.0241,0,0,0,0,0,0,0,0,0.0769,0.0762,0.0698,0.069,0.0681,0.0591,0.0584,0.0512,0.0508,0.0568,0.0502,0.0499,0.0375,0.036,0.0339,0.026,0.0251,0.0243,0.0239,0.0236,0.0234,0,0,0,0,0,0,0,0.0774,0.0766,0.0713,0.0697,0.0687,0.0639,0.0627,0.057,0.0482,0.0562,0.0553,0.0546,0.0369,0.0346,0.0332,0.0247,0.0243,0.0237,0.0233,0.023,0.0113,0.0114,0,0,0,0,0,0,0.0802,0.0772,0.0717,0.071,0.0724,0.064,0.0626,0.0619,0.0484,0.0463,0.0549,0.0541,0.0359,0.034,0.0324,0.0293,0.0236,0.023,0.0226,0.0112,0.0113,0.0114,0,0,0,0,0,0,0.0804,0.0798,0.0722,0.0741,0.0728,0.0643,0.0636,0.0618,0.058,0.0476,0.0451,0.0527,0.0356,0.0333,0.0269,0.0284,0.0227,0.022,0.0111,0.0112,0.0113,0.0251,0,0,0,0,0,0,0.0807,0.08,0.0802,0.0743,0.0728,0.0714,0.0638,0.0618,0.0582,0.057,0.0449,0.0426,0.0352,0.028,0.0263,0.0274,0.0215,0.0109,0.0111,0.0113,0.0245,0.0257,0.0267,0,0,0,0,0,0.0809,0.083,0.0803,0.0796,0.0735,0.0716,0.0704,0.0631,0.0584,0.0584,0.0496,0.0429,0.0279,0.0276,0.0255,0.0264,0.0108,0.0111,0.0113,0.024,0.0254,0.0266,0,0,0,0,0,0,0.0859,0.0817,0.0785,0.079,0.076,0.0694,0.0688,0.064,0.0572,0.0545,0.0441,0.0413,0.0362,0.03,0.0299,0.0236,0.0183,0.0182,0.0287,0.03,0.0311,0.0313,0.0209,0,0,0,0,0,0.0876,0.0877,0.0831,0.0835,0.0824,0.0756,0.0736,0.0687,0.0624,0.059,0.0506,0.0419,0.036,0.0319,0.0253,0.0223,0.0165,0.0215,0.0226,0.0236,0.0224,0.0173,0.0179,0.0121,0.0121,0.0121,0,0,0.0889,0.0874,0.0868,0.0845,0.081,0.0808,0.0737,0.0713,0.07,0.0578,0.0526,0.0452,0.0361,0.0322,0.0294,0.0267,0.0226,0.0239,0.0248,0.023,0.0176,0.0182,0.0187,0.0122,0.0122,0.0122,0,0,0.0927,0.0912,0.092,0.091,0.0875,0.0844,0.0842,0.0776,0.0736,0.069,0.06,0.0542,0.0441,0.0387,0.0347,0.0382,0.0286,0.0354,0.0408,0.0361,0.0365,0.0368,0.0324,0.0321,0.036,0.036,0.0361,0,0.0936,0.0947,0.0921,0.0935,0.0929,0.0868,0.0874,0.0845,0.0761,0.0731,0.0687,0.0547,0.0477,0.0434,0.0438,0.0407,0.0354,0.037,0.0376,0.0377,0.0378,0.0331,0.0327,0.0367,0.0367,0.0366,0.0365,0,0.0978,0.0986,0.0999,0.0993,0.0993,0.0992,0.0958,0.0934,0.0877,0.0828,0.0763,0.0671,0.0572,0.0565,0.0504,0.0477,0.0431,0.0399,0.0347,0.0392,0.034,0.0333,0.0377,0.0375,0.0373,0.0371,0,0,0.097,0.1013,0.101,0.1018,0.1019,0.1014,0.1024,0.0998,0.0969,0.0907,0.0863,0.0787,0.0705,0.0654,0.058,0.0551,0.0525,0.0474,0.0469,0.0438,0.0409,0.033,0.0314,0.0484,0.0484,0.0483,0.0379,0,0.099,0.1035,0.105,0.1078,0.1094,0.1075,0.1084,0.1057,0.1006,0.0953,0.0884,0.0797,0.0751,0.0676,0.0651,0.054,0.0507,0.0555,0.036,0.0355,0.0286,0.0304,0.0329,0.0232,0.0371,0.037,0.0369,0,0.1001,0.1036,0.1072,0.1108,0.1109,0.1104,0.1087,0.1079,0.1027,0.0984,0.0915,0.0832,0.0764,0.071,0.0584,0.0607,0.0508,0.0448,0.0441,0.0307,0.0262,0.0203,0.0213,0.0357,0.0358,0.0359,0.0359,0,0.099,0.1039,0.1067,0.108,0.1116,0.1099,0.1085,0.1055,0.1038,0.0957,0.0933,0.0842,0.0763,0.0663,0.0534,0.0533,0.0404,0.0383,0.0234,0.0228,0.0177,0.0167,0.0291,0.0291,0.0291,0.0291,0.0291,0,0.1005,0.1019,0.1044,0.1057,0.1061,0.1068,0.1029,0.1021,0.0979,0.1003,0.0906,0.0912,0.074,0.0656,0.0543,0.0368,0.0401,0.0233,0.019,0.0227,0.0223,0.0266,0.0265,0.0287,0.0288,0.0289,0.029,0,0.0986,0.1014,0.104,0.106,0.1053,0.1031,0.0998,0.0997,0.0949,0.0978,0.0952,0.091,0.0804,0.0648,0.0475,0.0357,0.0211,0.014,0.0192,0.0156,0.0066,0.0073,-0.0051,-0.0054,-0.0058,-0.006,-0.0062,0,0.0979,0.0992,0.102,0.1028,0.102,0.0982,0.0993,0.0966,0.0999,0.1033,0.1091,0.0962,0.0952,0.0645,0.0385,0.0129,0.0143,-0.0029,-0.0033,0.0057,0.0028,0.004,0.0051,-0.003,-0.0032,-0.0034,-0.0035,0,0.0964,0.0964,0.0994,0.1017,0.1021,0.1059,0.107,0.1098,0.1147,0.1182,0.1279,0.1248,0.0953,0.0685,0.0273,0.0123,0.0008,-0.0072,0.0007,0.0044,0.0064,0.004,0.0052,-0.0048,-0.0047,-0.0046,-0.0045,-0.0044,0.0924,0.0947,0.0986,0.1022,0.106,0.117,0.1184,0.1263,0.1342,0.1418,0.1427,0.137,0.1063,0.0505,0.021,-0.0135,-0.0114,-0.0207,-0.0197,-0.0187,-0.0175,-0.0162,-0.0314,-0.0314,-0.0314,-0.0314,-0.0314,0,0.0911,0.097,0.0995,0.1072,0.1146,0.1164,0.129,0.1318,0.1447,0.1513,0.1523,0.124,0.0916,0.0561,0.0032,-0.0271,-0.0252,-0.0353,-0.0242,-0.0228,-0.0216,-0.0201,-0.0349,-0.035,-0.0351,-0.0352,0,0,0.09,0.0961,0.1017,0.1153,0.1201,0.1293,0.1369,0.1434,0.1479,0.1509,0.1462,0.1359,0.0987,0.0609,0.0212,-0.0074,-0.0082,-0.0132,-0.0074,0.0115,0.0131,-0.011,-0.0069,0,0,0,0,0]}],[{"header":{"parameterUnit":"m.s-1","parameterCategory":2,"la1":30.2991,"la2":30.254,"lo1":-89.0895,"lo2":-89.0444,"dy":0.0017,"dx":0.0017,"nx":28,"ny":28,"refTime":"2024-07-28T21:00:00:Z","depth":"4","parameterNumber":2,"parameterNumberName":"U-component_of_CURRENTS"},"data":[0,0,0,0,0,0,0,0,0,0,0,0,0,0,0,0,0,0,0,0,0,0,0,0,0,0,0,0,0,0,0,0,0,0,0,0,0,0,0,0,0,0,0,0,0,0,0,0,0,0,0,0,0,0,0,0,0,0,0.0878,0.0879,0,0.095,0.095,0.0951,0.0988,0.0989,0.0989,0.0989,0.1023,0.1024,0.1024,0,0,0,0,0,0,0,0,0,0,0,0,0,0.0794,0.0795,0.0877,0.0879,0.088,0.095,0.095,0.0951,0.0988,0.0989,0.0989,0.0989,0.1023,0.1023,0.1024,0,0,0,0,0,0,0,0,0,0,0,0,0,0.0842,0.0796,0.0877,0.0909,0.0913,0.095,0.0951,0.0951,0.0988,0.0989,0.0989,0.099,0.1023,0.1023,0.1024,0.1019,0,0,0.1027,0.1027,0,0,0,0,0,0,0,0,0.0839,0.0844,0.0903,0.0907,0.0912,0.0964,0.0934,0.0973,0.0988,0.0956,0.0989,0.099,0.1001,0.1004,0.1012,0.1021,0.1022,0.1027,0.1027,0.1028,0.1028,0,0,0,0,0,0,0,0.0836,0.0842,0.0903,0.0905,0.091,0.0928,0.0935,0.0941,0.0972,0.0959,0.0963,0.0976,0.1003,0.1011,0.1013,0.1023,0.1027,0.1028,0.1028,0.1029,0.1166,0.1169,0,0,0,0,0,0,0.0832,0.0838,0.0901,0.0905,0.088,0.0929,0.0937,0.0944,0.0973,0.0979,0.0975,0.0977,0.101,0.1012,0.1014,0.1116,0.1028,0.1029,0.1029,0.1162,0.1166,0.117,0,0,0,0,0,0,0.0829,0.0836,0.0898,0.0876,0.0886,0.093,0.0938,0.0945,0.1,0.0986,0.0991,0.1029,0.101,0.1013,0.1034,0.1113,0.1029,0.103,0.1159,0.1164,0.1168,0.1251,0,0,0,0,0,0,0.0827,0.0835,0.0855,0.0876,0.0887,0.095,0.0938,0.0946,0.1006,0.1011,0.1033,0.1034,0.1011,0.1033,0.1035,0.1113,0.103,0.1155,0.1161,0.1166,0.1244,0.1258,0.127,0,0,0,0,0,0.0823,0.0839,0.0856,0.0865,0.0908,0.0952,0.096,0.099,0.1009,0.1041,0.1038,0.1036,0.1074,0.1034,0.1037,0.1117,0.1152,0.1159,0.1166,0.1239,0.1255,0.1269,0,0,0,0,0,0,0.0819,0.0845,0.0864,0.089,0.0936,0.096,0.0983,0.1022,0.1049,0.1061,0.1044,0.1044,0.1101,0.1096,0.1054,0.1179,0.1127,0.1134,0.1182,0.1197,0.121,0.1187,0.1031,0,0,0,0,0,0.0827,0.0842,0.0883,0.091,0.0926,0.0969,0.0998,0.1038,0.1058,0.1075,0.1083,0.1104,0.1127,0.1149,0.1158,0.1211,0.1199,0.1277,0.129,0.13,0.1287,0.1308,0.132,0.1193,0.1193,0.1192,0,0,0.0837,0.0851,0.0865,0.0911,0.0934,0.0974,0.0987,0.1051,0.1094,0.1071,0.1117,0.114,0.1148,0.1202,0.1233,0.1212,0.1344,0.1309,0.1318,0.1298,0.1316,0.1328,0.1338,0.1197,0.1197,0.1196,0,0,0.0846,0.087,0.0885,0.0926,0.0988,0.1011,0.1045,0.1103,0.1134,0.1183,0.1189,0.1242,0.1274,0.1297,0.131,0.1402,0.1401,0.145,0.1502,0.1524,0.1533,0.1541,0.1585,0.1596,0.1466,0.1466,0.1466,0,0.0853,0.0886,0.0903,0.0935,0.0973,0.1032,0.108,0.1115,0.1183,0.1222,0.1209,0.1304,0.131,0.1389,0.1421,0.1429,0.1447,0.1438,0.1536,0.1544,0.155,0.1593,0.1604,0.1471,0.147,0.147,0.1469,0,0.0886,0.0921,0.0932,0.098,0.1024,0.1083,0.1133,0.1197,0.1243,0.1291,0.1385,0.139,0.1457,0.1492,0.1472,0.1568,0.157,0.1538,0.1487,0.1567,0.1609,0.1619,0.1478,0.1476,0.1475,0.1474,0,0,0.0857,0.0937,0.0946,0.0984,0.1066,0.1106,0.1174,0.126,0.1331,0.1395,0.1471,0.1529,0.1578,0.1595,0.1622,0.1638,0.1711,0.1618,0.1617,0.1643,0.1788,0.1687,0.1688,0.17,0.1701,0.1703,0.1812,0,0.0877,0.0944,0.0984,0.1062,0.1097,0.1175,0.1232,0.133,0.1395,0.1477,0.1533,0.1615,0.1607,0.167,0.1686,0.1699,0.1735,0.1685,0.1721,0.1722,0.1605,0.1694,0.1707,0.1819,0.1822,0.1823,0.1824,0,0.0901,0.0934,0.1018,0.111,0.1135,0.1199,0.1323,0.14,0.1524,0.1577,0.1677,0.1723,0.1807,0.1757,0.1828,0.1804,0.1808,0.1797,0.18,0.167,0.1637,0.1715,0.1841,0.184,0.1839,0.1838,0.1836,0,0.0879,0.0962,0.1032,0.1069,0.1178,0.1241,0.132,0.145,0.1532,0.167,0.1737,0.1833,0.1895,0.1905,0.1909,0.1888,0.1938,0.1909,0.1829,0.1824,0.184,0.183,0.194,0.194,0.194,0.1939,0.1939,0,0.0887,0.0935,0.1034,0.1074,0.1156,0.1255,0.1386,0.1465,0.1613,0.1709,0.1809,0.1875,0.1928,0.1968,0.1949,0.1924,0.1991,0.1845,0.1839,0.1883,0.1875,0.185,0.1838,0.1944,0.1943,0.1942,0.1941,0,0.0859,0.0932,0.1005,0.1119,0.1152,0.1231,0.1406,0.1492,0.1646,0.1765,0.182,0.1942,0.1997,0.2025,0.2045,0.1979,0.1957,0.1929,0.2005,0.2001,0.1828,0.182,0.1871,0.1868,0.1866,0.1864,0.1862,0,0.085,0.0887,0.1014,0.1052,0.1105,0.1234,0.1308,0.1483,0.1567,0.1784,0.1806,0.194,0.1994,0.1959,0.1986,0.1977,0.1935,0.1936,0.1846,0.1829,0.1819,0.1814,0.1809,0.1858,0.1858,0.1857,0.1856,0,0.08,0.0871,0.0935,0.1018,0.109,0.1174,0.1293,0.135,0.1553,0.1688,0.1774,0.183,0.1882,0.1899,0.1905,0.1882,0.1937,0.191,0.1914,0.183,0.1814,0.1806,0.1804,0.1848,0.1849,0.185,0.1851,0,0.0767,0.0798,0.09,0.0977,0.1039,0.1079,0.1173,0.1271,0.1388,0.1607,0.1629,0.1752,0.1865,0.1852,0.185,0.183,0.1798,0.1732,0.1744,0.1754,0.1657,0.1617,0.1594,0,0,0,0,0,0.0741,0.0781,0.0832,0.0915,0.0974,0.1033,0.1128,0.1231,0.1407,0.1423,0.1537,0.1584,0.1639,0.1703,0.1655,0.1782,0.1786,0.1719,0.1711,0.1803,0.1812,0.1705,0,0,0,0,0,0,0.0711,0.0782,0.0818,0.0846,0.0894,0.0959,0.1027,0.1148,0.1178,0.1349,0.1375,0.151,0.1562,0.1655,0.1637,0.1653,0.1618,0.1801,0.1797,0.1798,0.1806,0.1814,0.1706,0,0,0,0,0]},{"header":{"parameterUnit":"m.s-1","parameterCategory":2,"la1":30.2991,"la2":30.254,"lo1":-89.0895,"lo2":-89.0444,"dy":0.0017,"dx":0.0017,"nx":28,"ny":28,"refTime":"2024-07-28T21:00:00:Z","depth":"4","parameterNumber":3,"parameterNumberName":"V-component_of_CURRENTS"},"data":[0,0,0,0,0,0,0,0,0,0,0,0,0,0,0,0,0,0,0,0,0,0,0,0,0,0,0,0,0,0,0,0,0,0,0,0,0,0,0,0,0,0,0,0,0,0,0,0,0,0,0,0,0,0,0,0,0,0,0.0342,0.0341,0,0.0288,0.0288,0.0287,0.026,0.026,0.026,0.026,0.0141,0.0138,0.0134,0,0,0,0,0,0,0,0,0,0,0,0,0,0.0381,0.0381,0.0342,0.0341,0.0341,0.0289,0.0288,0.0287,0.026,0.026,0.026,0.026,0.0142,0.0138,0.0134,0,0,0,0,0,0,0,0,0,0,0,0,0,0.0347,0.0381,0.0342,0.0323,0.0321,0.0289,0.0287,0.0286,0.026,0.026,0.026,0.0261,0.0144,0.0139,0.0134,0.0096,0,0,0.0118,0.0116,0,0,0,0,0,0,0,0,0.0349,0.0346,0.0326,0.0324,0.0322,0.0283,0.0258,0.022,0.026,0.028,0.026,0.0261,0.0184,0.0176,0.0162,0.009,0.0085,0.0118,0.0115,0.0112,0.0111,0,0,0,0,0,0,0,0.0352,0.0347,0.0318,0.0326,0.0323,0.0304,0.03,0.025,0.0228,0.0278,0.0277,0.0275,0.0182,0.0167,0.0159,0.0083,0.0118,0.0113,0.011,0.0108,-0.0038,-0.0039,0,0,0,0,0,0,0.0365,0.035,0.032,0.0317,0.034,0.0304,0.0299,0.0293,0.0229,0.0221,0.0275,0.0274,0.0176,0.0165,0.0155,0.0114,0.0112,0.0108,0.0105,-0.0038,-0.0039,-0.004,0,0,0,0,0,0,0.0366,0.0363,0.0322,0.0334,0.0328,0.0303,0.0297,0.0292,0.0289,0.0228,0.0218,0.0279,0.0175,0.0162,0.0106,0.0109,0.0105,0.0101,-0.0037,-0.0038,-0.0039,0.0027,0,0,0,0,0,0,0.0367,0.0363,0.037,0.0335,0.0328,0.0312,0.0297,0.0291,0.0288,0.0287,0.0228,0.0217,0.0175,0.0114,0.0101,0.0102,0.0097,-0.0035,-0.0037,-0.0039,0.0026,0.0028,0.003,0,0,0,0,0,0.0369,0.0377,0.0371,0.0367,0.0336,0.0313,0.0307,0.0289,0.0289,0.0288,0.0238,0.0219,0.0095,0.0109,0.0094,0.0094,-0.0035,-0.0037,-0.0039,0.0025,0.0028,0.003,0,0,0,0,0,0,0.0405,0.0374,0.0366,0.0367,0.0347,0.031,0.0307,0.0299,0.0261,0.0262,0.0204,0.0188,0.014,0.0102,0.0119,0.0044,0.0029,0.0024,0.0082,0.0084,0.0086,0.0117,0.0093,0,0,0,0,0,0.0415,0.0409,0.0379,0.0382,0.037,0.0342,0.0333,0.0326,0.0288,0.0274,0.0225,0.0171,0.0118,0.0092,0.0038,-0.0004,-0.0036,-0.0015,-0.0013,-0.001,0.0002,-0.0059,-0.006,-0.0046,-0.0046,-0.0046,0,0,0.0434,0.0414,0.0415,0.0389,0.0367,0.0355,0.0336,0.0332,0.0321,0.0264,0.0224,0.0176,0.0107,0.0058,0.0035,0.003,-0.0031,-0.0013,-0.001,0.0002,-0.0061,-0.0062,-0.0063,-0.0047,-0.0047,-0.0047,0,0,0.0459,0.0444,0.0444,0.0428,0.0407,0.0381,0.0385,0.035,0.033,0.029,0.0244,0.0199,0.0116,0.007,0.0035,0.0015,-0.0019,-0.0,0.0038,-0.0022,-0.0023,-0.0024,-0.0056,-0.0061,0.0003,0.0003,0.0003,0,0.0483,0.0479,0.0444,0.0438,0.043,0.0395,0.0398,0.0366,0.032,0.0307,0.0285,0.0175,0.0121,0.0066,0.006,0.0023,-0.0007,0.0039,-0.0016,-0.0019,-0.0021,-0.0054,-0.006,0.0006,0.0006,0.0005,0.0005,0,0.0505,0.0505,0.0502,0.0476,0.046,0.046,0.0414,0.0397,0.0368,0.0342,0.0288,0.0205,0.0153,0.012,0.0083,0.0042,0.0029,-0.0005,-0.0013,-0.0018,-0.0053,-0.006,0.001,0.0009,0.0008,0.0008,0,0,0.0547,0.0523,0.0527,0.0528,0.0487,0.0482,0.0451,0.0421,0.0423,0.0357,0.034,0.0246,0.0227,0.0187,0.0132,0.0076,0.0034,0.004,0.0036,0.0027,-0.0077,-0.0086,-0.0095,-0.0008,-0.0009,-0.001,-0.0089,0,0.0576,0.0587,0.0561,0.0572,0.0568,0.0529,0.0513,0.0487,0.0443,0.0412,0.0331,0.0299,0.0243,0.0234,0.0165,0.0058,0.0016,0.006,-0.0087,-0.009,-0.0084,-0.0104,-0.0014,-0.0095,-0.0096,-0.0098,-0.0099,0,0.0609,0.0606,0.0632,0.0628,0.0626,0.0634,0.0615,0.0606,0.055,0.0517,0.0464,0.0403,0.0319,0.0272,0.0103,0.0135,0.0051,-0.0035,-0.0041,-0.0075,-0.0114,-0.0096,-0.0113,-0.0111,-0.011,-0.0109,-0.0109,0,0.0659,0.0661,0.0688,0.0687,0.0673,0.0689,0.0693,0.0657,0.0665,0.0607,0.0597,0.0477,0.0433,0.0287,0.0116,0.0116,-0.008,-0.0106,-0.019,-0.019,-0.0185,-0.0183,-0.0205,-0.0205,-0.0205,-0.0204,-0.0204,0,0.0691,0.0714,0.0729,0.0744,0.0787,0.0772,0.0831,0.0793,0.0786,0.0787,0.0685,0.0637,0.0435,0.0294,0.0135,-0.0054,-0.0063,-0.0179,-0.0217,-0.0155,-0.0149,-0.0189,-0.0186,-0.0207,-0.0207,-0.0206,-0.0206,0,0.0726,0.0741,0.0779,0.08,0.0813,0.0861,0.0928,0.0963,0.0946,0.0933,0.0924,0.0769,0.0575,0.0362,0.0115,-0.0009,-0.0202,-0.0257,-0.0157,-0.0189,-0.027,-0.0263,-0.0351,-0.0352,-0.0353,-0.0354,-0.0354,0,0.0732,0.0759,0.0827,0.0864,0.0879,0.0962,0.1012,0.1036,0.1053,0.0993,0.096,0.0812,0.0675,0.0326,0.0103,-0.0191,-0.023,-0.0303,-0.03,-0.026,-0.0288,-0.0279,-0.0271,-0.0356,-0.0356,-0.0356,-0.0356,0,0.0726,0.0779,0.0811,0.0898,0.0968,0.1046,0.1103,0.1124,0.1129,0.1127,0.0985,0.0809,0.0589,0.0317,0.0098,-0.0119,-0.0253,-0.0314,-0.0313,-0.031,-0.0267,-0.0292,-0.0283,-0.036,-0.0359,-0.0359,-0.0359,0,0.073,0.0761,0.0833,0.0906,0.0989,0.1048,0.1111,0.1112,0.114,0.1053,0.1008,0.0777,0.0659,0.0354,0.0134,-0.0069,-0.0114,-0.0165,-0.0173,-0.0172,-0.0106,-0.0024,-0.0072,0,0,0,0,0,0.0717,0.0751,0.0818,0.0893,0.0982,0.1035,0.1106,0.1162,0.1167,0.1071,0.1041,0.0828,0.051,0.0374,0.0168,0.011,-0.0153,-0.0135,-0.0216,-0.0377,-0.0374,-0.0329,0,0,0,0,0,0,0.0704,0.0771,0.0804,0.0864,0.0911,0.1008,0.1061,0.1082,0.103,0.1006,0.0837,0.0782,0.047,0.0613,0.016,0.0101,0.0025,-0.0274,-0.0278,-0.038,-0.0376,-0.0373,-0.0326,0,0,0,0,0]}]]